Wind_Speed
36 35 35 35 33 33 32 32 31 31 31 31 31 32 32 31 29 28 27 26 25 25 24 23 22 20 20 20 21 21 20 18 17 16 15 15 15 16 17 19 19 19
37 36 36 35 34 33 33 33 33 33 33 33 33 32 32 31 30 29 28 26 26 26 25 24 23 21 20 20 20 21 20 20 19 18 17 17 16 17 18 19 19 19
37 37 36 35 35 35 34 34 33 33 33 33 33 32 32 31 31 30 29 27 26 26 26 25 24 23 22 21 21 21 21 21 20 19 18 18 18 18 18 19 19 20
38 38 37 37 37 36 34 33 32 32 32 32 33 32 31 31 31 30 30 28 27 26 27 26 25 24 23 22 21 22 22 22 21 19 19 19 19 19 19 19 21 21
38 38 38 37 36 34 33 33 33 33 33 33 33 32 31 31 31 30 30 29 29 28 28 27 26 25 25 24 23 23 23 23 22 21 21 21 21 20 20 20 21 22
37 37 38 37 35 34 34 34 34 33 33 33 32 32 31 31 30 30 30 30 30 29 29 29 28 27 27 26 25 25 24 24 23 23 23 23 22 22 22 22 23 23
37 37 37 37 36 35 35 35 34 33 33 33 32 32 32 31 31 31 31 30 30 30 30 30 30 30 29 28 27 27 26 26 25 25 25 24 24 24 24 24 25 26
37 37 37 36 36 35 35 35 34 33 33 32 32 32 32 32 32 32 32 31 30 30 30 31 31 30 30 29 29 28 28 27 27 27 26 26 26 26 26 26 27 28
37 36 37 36 36 36 36 35 34 33 33 33 32 33 33 33 33 33 32 32 31 31 31 31 31 31 30 30 30 30 29 29 28 28 28 28 28 28 28 27 28 29
36 35 36 36 36 36 36 36 35 33 33 33 33 33 33 34 33 33 33 32 32 32 32 32 32 31 31 31 31 31 30 30 29 29 29 29 29 29 29 28 29 30
36 35 35 36 36 36 36 36 35 34 33 33 33 33 33 33 33 33 32 33 33 34 34 34 33 33 32 32 32 32 31 31 31 30 30 30 30 30 30 30 30 31
36 36 36 37 37 37 37 36 35 34 34 34 34 34 34 33 33 33 33 34 35 35 35 35 34 33 33 33 33 32 32 32 32 32 32 31 31 31 31 31 31 32
37 38 38 38 38 38 38 37 36 36 35 35 35 35 35 34 34 33 33 34 35 35 35 35 34 34 34 34 33 33 33 33 33 33 32 32 32 32 32 32 33 33
40 40 40 40 39 39 38 37 37 36 36 36 35 35 36 36 35 35 34 34 35 35 35 35 34 34 34 34 34 34 34 34 34 33 32 32 32 33 33 33 34 34
40 39 39 38 37 36 36 36 36 36 36 36 36 36 36 36 35 35 34 34 34 35 34 34 34 35 35 35 35 35 35 34 34 33 32 32 32 32 32 33 34 34
38 37 36 36 35 35 35 36 36 36 36 36 36 37 36 35 34 34 34 34 34 34 33 33 34 35 36 37 36 36 35 34 33 33 32 32 31 31 32 33 33 33
36 36 35 35 36 36 36 37 37 36 35 36 36 36 35 34 34 33 34 34 34 34 34 34 35 36 37 37 37 36 35 34 33 33 32 32 32 32 33 33 33 33
36 35 35 36 36 37 37 37 36 36 36 36 36 35 35 35 34 34 35 35 34 34 35 35 36 37 37 37 37 36 35 34 34 33 32 32 32 32 33 33 33 34
36 36 36 36 37 38 37 37 36 36 36 36 36 36 36 35 35 36 36 36 36 35 36 36 37 37 38 38 37 37 36 35 34 34 33 32 32 32 33 33 33 34
36 36 36 37 37 38 37 37 37 37 37 37 36 36 35 35 36 36 37 37 37 37 37 37 38 38 38 38 37 36 35 34 35 35 34 34 33 33 34 34 34 33
36 36 36 36 37 37 36 37 37 37 37 37 36 36 36 37 37 37 37 37 37 37 37 38 39 39 38 38 38 36 34 33 34 34 35 35 35 35 35 36 35 33
36 36 35 36 36 36 35 35 36 36 37 37 36 36 36 37 37 36 36 37 37 36 36 38 40 40 39 39 38 36 33 32 33 34 35 35 36 36 37 37 36 34
36 36 36 36 35 35 35 35 36 37 37 37 35 34 35 35 36 36 36 37 36 36 37 39 41 40 39 39 38 35 33 33 33 34 35 35 36 37 37 37 36 36
37 37 37 36 35 35 36 37 37 37 37 36 35 35 36 36 36 35 36 36 36 37 38 39 40 39 38 38 37 35 34 34 34 35 35 35 35 36 36 36 36 36
36 37 36 35 35 36 37 38 37 37 37 36 35 35 36 36 35 34 34 35 36 37 37 38 39 39 38 37 36 34 34 34 34 34 34 34 34 34 35 35 35 35
35 35 36 35 36 37 38 38 37 36 35 34 34 34 34 33 33 32 33 33 34 35 36 37 38 38 38 37 36 34 34 34 34 34 33 33 32 33 33 32 32 33
Wind_Direction
209 209 210 212 214 216 217 218 219 220 222 224 226 229 230 231 232 232 234 237 239 242 244 247 250 251 251 249 247 247 247 249 250 253 255 256 256 255 253 252 252 255
209 209 210 211 213 216 218 220 221 222 224 226 229 231 233 234 234 234 236 238 240 242 243 246 250 251 252 251 248 246 247 249 250 251 253 255 257 257 256 254 254 256
209 210 210 212 214 216 218 220 222 224 226 228 230 233 235 236 236 236 237 238 241 242 243 245 249 251 252 252 250 248 247 249 250 252 254 255 256 257 258 257 258 260
209 210 211 213 215 217 217 218 221 224 226 229 232 234 236 237 237 237 237 238 240 241 242 245 249 252 253 253 252 250 249 250 252 254 256 257 258 258 259 259 260 261
210 211 212 214 215 216 216 218 221 224 226 229 233 234 235 236 237 238 238 238 238 240 242 244 248 252 253 254 253 251 250 251 252 255 257 258 259 260 260 260 261 262
210 211 212 214 214 215 216 219 221 223 225 229 231 233 235 236 237 239 240 240 239 240 241 243 247 250 252 253 253 253 252 253 253 254 256 259 260 260 260 260 261 262
210 211 212 213 214 215 217 220 221 222 225 228 230 232 234 235 236 238 240 241 241 241 242 243 246 248 250 251 252 253 253 254 255 255 256 258 260 261 260 260 260 262
210 211 212 213 214 215 218 219 220 222 225 227 228 231 233 235 236 238 239 241 241 242 243 244 246 248 249 250 250 252 253 253 254 254 255 257 258 260 261 261 261 261
209 210 211 212 213 215 217 219 220 222 224 225 227 230 232 234 236 237 238 239 241 242 243 245 247 248 249 249 250 251 252 253 253 253 254 255 256 259 261 261 261 261
208 209 210 211 213 215 217 218 220 221 222 224 227 228 230 233 234 236 237 238 240 241 243 244 246 247 248 249 250 251 252 253 254 254 255 256 257 259 261 261 261 262
207 208 210 211 212 215 217 218 219 220 221 223 225 227 229 231 232 234 234 236 238 240 242 243 244 245 246 248 249 250 252 253 254 255 256 257 258 260 261 261 261 263
206 207 209 211 213 214 216 218 218 219 220 222 224 226 228 230 231 232 233 234 237 239 241 243 244 244 245 247 248 249 251 253 253 254 255 256 258 259 261 261 262 264
205 208 210 212 214 215 216 217 217 219 220 222 224 225 227 229 229 231 232 234 237 238 240 242 243 244 245 245 247 248 250 251 252 253 253 255 257 258 260 262 263 264
206 209 210 212 214 215 215 216 217 218 219 221 223 225 227 228 229 231 233 234 236 237 239 240 241 242 244 244 245 246 247 249 250 251 252 254 256 257 259 260 262 264
207 208 210 212 213 213 214 215 217 218 219 221 223 225 227 228 229 231 232 234 236 237 238 238 238 240 242 243 244 244 245 247 248 249 250 252 254 256 258 259 260 262
206 208 209 210 211 213 214 216 217 218 218 220 222 225 227 228 229 230 231 233 235 237 237 237 238 240 242 243 245 245 245 246 247 248 250 251 253 255 257 258 260 261
205 206 208 209 210 212 215 216 217 217 218 220 222 224 226 227 228 229 231 233 235 236 237 237 239 240 242 244 245 245 245 245 247 249 250 251 253 255 257 259 260 262
204 205 207 208 210 212 214 216 217 217 219 220 222 223 225 226 228 229 231 233 234 236 237 238 240 242 243 244 245 245 246 245 246 248 250 251 253 254 257 259 261 263
203 204 206 208 210 212 213 215 215 216 218 220 221 223 224 225 227 229 231 233 234 235 237 239 241 243 244 245 246 246 246 245 246 247 248 250 252 254 256 258 260 261
203 204 206 208 210 211 212 213 214 216 218 219 221 222 223 225 227 229 231 232 234 235 237 240 242 243 245 246 247 247 247 246 246 247 247 249 251 253 255 257 259 259
203 204 206 208 210 211 212 213 214 216 218 219 220 221 222 225 227 228 230 232 233 235 237 240 243 244 245 246 247 247 247 246 247 247 247 249 251 253 255 256 258 258
203 204 206 208 209 210 211 213 214 216 218 219 220 221 223 225 227 228 230 231 233 234 236 240 244 245 246 247 248 247 247 246 247 247 247 248 250 253 254 256 257 257
203 204 206 208 209 209 210 213 215 217 218 219 219 220 222 224 226 228 230 231 233 233 234 238 243 245 246 247 247 246 245 245 245 246 247 247 250 253 254 256 257 257
204 206 207 207 208 209 211 214 215 217 219 218 218 219 222 224 226 228 230 231 232 233 234 237 242 244 245 246 247 245 244 244 244 245 245 246 249 253 254 255 257 258
205 207 208 208 208 210 212 215 216 218 219 219 218 220 223 225 226 227 229 231 232 234 236 237 241 245 246 246 246 245 243 243 243 243 243 244 248 251 253 255 256 258
207 207 209 209 210 212 214 216 217 218 218 218 218 220 224 226 226 227 229 231 232 234 236 237 240 243 245 246 246 245 243 243 241 240 240 243 246 249 252 254 255 258
Height
808 811 813 815 817 820 822 824 826 828 830 832 833 834 836 837 839 841 843 844 845 846 847 848 849 850 851 852 853 854 855 856 857 858 859 859 860 861 861 862 863 863
805 808 810 813 815 817 819 821 824 825 827 829 831 832 834 836 838 839 841 843 844 844 845 846 847 848 849 850 851 852 853 854 855 856 857 857 858 859 860 860 861 862
802 805 807 810 811 814 816 819 821 823 825 827 829 831 832 834 836 837 839 841 842 843 844 845 846 846 848 849 850 851 851 852 853 854 855 856 857 858 858 859 859 860
800 802 804 807 809 811 814 817 819 821 823 825 827 829 830 832 834 835 837 839 840 841 842 843 844 845 846 847 848 849 849 850 851 852 854 854 855 856 856 857 858 858
797 800 802 805 807 810 813 814 816 818 821 823 825 827 828 830 831 833 834 836 838 839 840 841 842 843 844 845 846 847 847 848 849 851 851 852 853 854 855 855 855 856
795 797 799 802 805 807 809 811 813 815 818 820 822 825 826 827 829 830 832 833 835 837 838 839 840 841 842 843 844 844 845 846 847 849 849 850 851 852 853 853 853 853
792 794 797 800 802 805 806 808 811 813 815 818 820 822 824 825 827 828 829 831 832 834 835 837 838 839 840 841 841 842 843 844 845 846 847 848 849 850 850 851 851 851
788 791 794 797 800 802 803 805 808 810 813 815 817 819 821 823 824 825 827 828 830 831 833 834 835 836 838 839 839 840 841 842 843 844 845 845 846 847 847 848 848 848
786 788 791 794 797 799 800 802 805 807 810 812 814 816 818 820 821 823 824 826 827 829 830 831 833 834 835 836 837 838 838 839 840 841 842 843 844 844 844 845 846 846
783 786 789 791 793 796 797 800 802 804 807 809 811 813 815 817 818 820 822 823 824 826 827 828 830 831 832 833 834 835 836 837 838 839 840 840 841 841 842 843 843 843
780 783 785 788 790 792 795 797 800 802 804 806 808 810 812 814 816 817 819 820 821 822 824 825 826 828 830 830 831 833 833 834 836 836 837 838 838 839 840 840 840 840
776 779 782 784 787 789 792 794 797 799 801 803 805 807 809 810 812 814 816 817 818 819 821 822 823 825 826 827 829 830 831 832 833 834 834 835 836 837 837 838 838 838
772 775 777 780 783 785 788 791 793 795 797 800 802 804 805 807 809 810 812 813 815 816 817 819 820 822 823 824 826 827 828 829 830 831 832 832 833 834 835 835 835 835
767 770 773 776 779 782 784 787 789 792 794 796 798 800 801 803 805 807 808 810 811 813 814 816 818 819 820 821 822 823 824 825 826 828 829 830 830 831 832 832 832 832
763 767 770 773 776 779 782 784 786 788 791 793 795 796 797 800 802 804 805 807 808 809 811 813 814 815 815 817 818 819 821 822 823 825 826 827 827 828 829 829 829 829
761 764 767 771 774 776 779 781 783 785 787 789 791 792 794 797 799 801 802 803 805 806 808 809 810 810 811 813 814 816 818 819 820 821 823 824 824 825 825 825 826 826
758 761 764 767 770 772 775 777 779 782 784 785 787 789 791 793 795 797 798 800 801 803 804 805 806 806 807 809 811 813 815 816 817 818 820 821 821 822 822 822 823 823
755 758 761 764 766 769 771 773 776 778 780 782 784 786 788 790 791 793 794 796 798 799 800 801 801 802 804 805 807 809 811 813 814 816 817 817 818 819 819 819 820 820
751 754 757 760 762 764 767 770 772 774 776 778 780 782 784 785 787 789 790 792 793 794 795 796 797 798 800 801 803 805 808 810 811 812 813 814 815 815 816 816 816 817
748 750 753 756 758 761 764 766 768 770 771 774 776 778 780 781 782 784 785 787 789 790 791 792 793 794 796 798 799 801 804 806 808 809 810 810 811 812 812 812 813 814
743 746 749 752 754 757 760 762 764 766 768 770 772 773 775 776 778 779 781 783 784 786 788 788 788 790 792 794 795 798 800 802 804 805 806 806 807 808 808 809 809 810
740 743 746 748 751 754 756 758 760 762 764 766 768 769 771 772 774 775 777 779 780 782 784 783 783 785 788 789 791 794 797 799 800 801 801 802 803 803 804 805 806 807
736 738 741 744 747 750 752 754 756 758 760 762 764 766 767 768 770 772 773 775 777 778 779 779 779 781 783 785 787 791 793 794 795 796 797 798 798 799 800 801 801 802
732 734 737 740 743 745 747 749 751 753 755 757 760 761 763 764 766 768 769 771 773 774 775 775 775 777 779 781 783 786 789 790 791 792 792 793 794 795 796 796 797 798
728 731 734 737 739 741 743 745 747 749 751 753 756 757 759 761 762 764 766 767 768 770 771 772 772 773 775 777 779 782 784 786 787 788 788 789 790 791 791 792 793 794
725 728 731 733 735 737 739 740 743 745 747 750 752 754 756 757 759 761 762 763 765 766 767 768 769 770 771 773 775 778 780 781 783 783 784 785 786 787 787 788 789 790